Zurück zum Katalog

COSMOS 516

AktivMilitärLEO
NORAD 6154·PAYLOAD·🇷🇺 Russia

Gestartet Aug 21, 1972 von Baikonur Cosmodrome

Loading…

Nächste Überflüge (nächste 24 Stunden)

TLE

AktuellSource: Space-Track

Epoche: Sep 14, 2026, 21:58 UTC

1 06154U 72066A   26257.91540689 -.00000055  00000-0  32933-4 0  9996
2 06154  64.8119 318.7005 0054519  62.1080 298.5482 13.77815167720285

Verfolge COSMOS 516 in Echtzeit mit AllMySat

Download on the App Store